User: anonymous   Login
Location: *
(51.0333°S, 178.4667°E)
Time: 15:14:05
(UTC+00:00)
Language:

STARLINK-42 - Orbit

View from above orbital plane
View from above orbital plane
View from above satellite
View from above satellite

Ground track
Ground track

The orbit data is extracted from the following two-line orbital elements,

1 44256U 19029X   20025.58335648  .00133822  00000-0  44804-2 0  9994
2 44256  52.9930 141.3615 0001432  67.0169  94.1889 15.29973440 37251
Epoch (UTC): 25 January 2020 14:00:02
Eccentricity: 0.0001432
inclination: 52.9930°
perigee height: 475 km
apogee height: 477 km
right ascension of ascending node: 141.3615°
argument of perigee: 67.0169°
revolutions per day: 15.29973440
mean anomaly at epoch: 94.1889°
orbit number at epoch: 3725

The dashed part of the orbit path shows where the satellite is in the earth's shadow,  

DLR